Weather History for Laconia, NH

Change the Weather History Date:

Wednesday, October 12, 2011

  Actual Average Record
Temperature  
Mean Temperature 50 °F -  
Max Temperature 57 °F 58 °F 73 °F (2001)
Min Temperature 44 °F 38 °F 26 °F (1993)
Degree Days  
Heating Degree Days 14    
Moisture  
Dew Point 44 °F    
Average Humidity 78    
Maximum Humidity 93    
Minimum Humidity 59    
Precipitation  
Precipitation 0.00 in - - ()
Sea Level Pressure  
Sea Level Pressure 30.22 in    
Wind  
Wind Speed 3 mph (East)    
Max Wind Speed 12 mph    
Max Gust Speed 17 mph    
Visibility 9 miles    
Events      
Averages and records for this station are not official NWS values.
T = Trace of Precipitation, MM = Missing Value Source: NWS Daily Summary

Daily Weather History Graph

Daily Weather History Graph

Search for Another Location

Airport:

Trip Planner

Search our weather history database for the weather conditions in past years. The results will help you decide how hot, cold, wet, or windy it might be!

Date:

Astronomy

Oct. 12, 2011 Rise Set
Actual Time 6:55 AM EDT 6:07 PM EDT
Civil Twilight 6:27 AM EDT 6:36 PM EDT
Nautical Twilight 5:53 AM EDT 7:09 PM EDT
Astronomical Twilight 5:20 AM EDT 7:42 PM EDT
Moon 6:04 PM EDT (10/12) 7:30 AM EDT (10/12)
Length of Visible Light 12h 09m
Length of Day
11h 12m
Full, 100% of the Moon is Illuminated
Oct 12
Full
Oct 19
Last Quarter
Oct 26
New
Nov 2
First Quarter
Nov 10
Full

Hourly Weather History & Observations

Time (EDT) Temp. Dew Point Humidity Pressure Visibility Wind Dir Wind Speed Gust Speed Precip Events Conditions
12:15 AM 46.4 °F 44.6 °F 93% 30.26 in 10.0 mi Calm Calm - N/A   Clear
12:35 AM 46.4 °F 42.8 °F 87% 30.25 in 10.0 mi Calm Calm - N/A   Clear
12:55 AM 44.6 °F 42.8 °F 93% 30.25 in 10.0 mi Calm Calm - N/A   Clear
1:15 AM 46.4 °F 42.8 °F 87% 30.25 in 10.0 mi Calm Calm - N/A   Clear
1:35 AM 46.4 °F 42.8 °F 87% 30.25 in 10.0 mi Calm Calm - N/A   Clear
1:55 AM 46.4 °F 42.8 °F 87% 30.25 in 10.0 mi Calm Calm - N/A   Clear
2:15 AM 46.4 °F 42.8 °F 87% 30.25 in 10.0 mi Calm Calm - N/A   Clear
2:35 AM 46.4 °F 42.8 °F 87% 30.24 in 10.0 mi Calm Calm - N/A   Clear
2:55 AM 46.4 °F 42.8 °F 87% 30.23 in 10.0 mi Calm Calm - N/A   Scattered Clouds
3:35 AM 46.4 °F 44.6 °F 93% 30.23 in 10.0 mi Calm Calm - N/A   Scattered Clouds
4:15 AM 46.4 °F 42.8 °F 87% 30.24 in 10.0 mi Calm Calm - N/A   Clear
4:35 AM 46.4 °F 44.6 °F 93% 30.24 in 10.0 mi Calm Calm - N/A   Clear
4:55 AM 46.4 °F 44.6 °F 93% 30.24 in 10.0 mi Calm Calm - N/A   Clear
5:15 AM 46.4 °F 42.8 °F 87% 30.24 in 10.0 mi Calm Calm - N/A   Clear
5:35 AM 46.4 °F 44.6 °F 93% 30.24 in 10.0 mi Calm Calm - N/A   Clear
5:55 AM 44.6 °F 42.8 °F 93% 30.25 in 10.0 mi Calm Calm - N/A   Partly Cloudy
6:15 AM 46.4 °F 42.8 °F 87% 30.26 in 1.5 mi Calm Calm - N/A   Overcast
6:35 AM 46.4 °F 42.8 °F 87% 30.25 in 0.2 mi Calm Calm - N/A   Overcast
6:55 AM 44.6 °F 42.8 °F 93% 30.25 in 1.0 mi Calm Calm - N/A   Overcast
7:35 AM 46.4 °F 44.6 °F 93% 30.25 in 1.8 mi Calm Calm - N/A   Overcast
7:55 AM 48.2 °F 44.6 °F 87% 30.25 in 6.0 mi Calm Calm - N/A   Partly Cloudy
8:15 AM 48.2 °F 46.4 °F 93% 30.26 in 10.0 mi Calm Calm - N/A   Mostly Cloudy
8:35 AM 48.2 °F 46.4 °F 93% 30.27 in 10.0 mi Calm Calm - N/A   Mostly Cloudy
8:55 AM 51.8 °F 48.2 °F 88% 30.27 in 10.0 mi East 5.8 mph - N/A   Clear
9:15 AM 51.8 °F 48.2 °F 88% 30.27 in 10.0 mi ENE 8.1 mph - N/A   Partly Cloudy
9:35 AM 53.6 °F 48.2 °F 82% 30.27 in 10.0 mi NE 6.9 mph - N/A   Partly Cloudy
9:55 AM 51.8 °F 46.4 °F 82% 30.27 in 10.0 mi NE 8.1 mph - N/A   Partly Cloudy
10:15 AM 53.6 °F 46.4 °F 77% 30.26 in 10.0 mi NNE 8.1 mph - N/A   Partly Cloudy
10:35 AM 53.6 °F 46.4 °F 77% 30.25 in 10.0 mi ENE 10.4 mph - N/A   Partly Cloudy
11:15 AM 55.4 °F 44.6 °F 67% 30.24 in 10.0 mi ENE 11.5 mph 17.3 mph N/A   Overcast
11:35 AM 55.4 °F 44.6 °F 67% 30.24 in 10.0 mi ENE 11.5 mph 16.1 mph N/A   Mostly Cloudy
11:55 AM 55.4 °F 44.6 °F 67% 30.24 in 10.0 mi ENE 8.1 mph - N/A   Mostly Cloudy
12:15 PM 57.2 °F 44.6 °F 63% 30.23 in 10.0 mi ENE 10.4 mph - N/A   Scattered Clouds
12:35 PM 55.4 °F 42.8 °F 63% 30.22 in 10.0 mi ENE 11.5 mph - N/A   Mostly Cloudy
12:55 PM 55.4 °F 42.8 °F 63% 30.22 in 10.0 mi East 10.4 mph - N/A   Mostly Cloudy
1:15 PM 55.4 °F 42.8 °F 63% 30.21 in 10.0 mi ENE 10.4 mph - N/A   Mostly Cloudy
1:35 PM 55.4 °F 42.8 °F 63% 30.20 in 10.0 mi ENE 11.5 mph - N/A   Mostly Cloudy
1:55 PM 55.4 °F 42.8 °F 63% 30.19 in 10.0 mi ENE 10.4 mph - N/A   Overcast
2:15 PM 55.4 °F 42.8 °F 63% 30.19 in 10.0 mi East 8.1 mph - N/A   Overcast
2:35 PM 57.2 °F 42.8 °F 59% 30.19 in 10.0 mi ESE 8.1 mph - N/A   Overcast
2:55 PM 57.2 °F 42.8 °F 59% 30.19 in 10.0 mi East 11.5 mph - N/A   Overcast
3:15 PM 57.2 °F 42.8 °F 59% 30.18 in 10.0 mi East 6.9 mph - N/A   Mostly Cloudy
3:35 PM 57.2 °F 42.8 °F 59% 30.18 in 10.0 mi East 8.1 mph - N/A   Mostly Cloudy
3:55 PM 57.2 °F 42.8 °F 59% 30.18 in 10.0 mi East 6.9 mph - N/A   Overcast
4:15 PM 57.2 °F 42.8 °F 59% 30.17 in 10.0 mi East 4.6 mph - N/A   Overcast
4:35 PM 55.4 °F 42.8 °F 63% 30.17 in 10.0 mi East 8.1 mph - N/A   Overcast
5:35 PM 55.4 °F 44.6 °F 67% 30.17 in 10.0 mi ESE 4.6 mph - N/A   Mostly Cloudy
5:55 PM 55.4 °F 44.6 °F 67% 30.17 in 10.0 mi East 4.6 mph - N/A   Overcast
6:15 PM 53.6 °F 44.6 °F 72% 30.17 in 10.0 mi East 3.5 mph - N/A   Overcast
6:35 PM 53.6 °F 44.6 °F 72% 30.17 in 10.0 mi East 3.5 mph - N/A   Mostly Cloudy
6:55 PM 53.6 °F 44.6 °F 72% 30.17 in 10.0 mi ESE 4.6 mph - N/A   Mostly Cloudy
7:15 PM 53.6 °F 46.4 °F 77% 30.17 in 10.0 mi East 5.8 mph - N/A   Overcast
7:35 PM 53.6 °F 46.4 °F 77% 30.16 in 10.0 mi East 4.6 mph - N/A   Overcast
7:55 PM 53.6 °F 46.4 °F 77% 30.17 in 10.0 mi East 5.8 mph - N/A   Overcast
8:15 PM 53.6 °F 46.4 °F 77% 30.17 in 10.0 mi East 3.5 mph - N/A   Overcast
8:35 PM 53.6 °F 46.4 °F 77% 30.16 in 10.0 mi ENE 5.8 mph - N/A   Overcast
8:55 PM 53.6 °F 48.2 °F 82% 30.15 in 10.0 mi ENE 6.9 mph - N/A   Overcast
9:15 PM 53.6 °F 48.2 °F 82% 30.15 in 10.0 mi ENE 6.9 mph - N/A   Overcast
9:35 PM 53.6 °F 48.2 °F 82% 30.14 in 10.0 mi ENE 6.9 mph - N/A   Overcast
9:55 PM 53.6 °F 48.2 °F 82% 30.14 in 10.0 mi ENE 6.9 mph - N/A   Overcast
10:15 PM 53.6 °F 48.2 °F 82% 30.13 in 10.0 mi ENE 11.5 mph - N/A   Overcast
10:35 PM 53.6 °F 48.2 °F 82% 30.12 in 10.0 mi ENE 10.4 mph - N/A   Overcast
10:55 PM 53.6 °F 48.2 °F 82% 30.12 in 10.0 mi ENE 8.1 mph - N/A   Overcast
11:15 PM 53.6 °F 48.2 °F 82% 30.12 in 10.0 mi East 5.8 mph - N/A   Overcast
11:35 PM 53.6 °F 48.2 °F 82% 30.11 in 10.0 mi ENE 5.8 mph - N/A   Overcast